Location: Maccacari
(45.1333°N, 11.1333°E)
Time: 03:39:34
(UTC+00:00)

Altair - Pass Details

Date: 01 February 2021
Orbit: 1501 x 1682 km, 47.2° (Epoch: 01 March)

Event Time Altitude Azimuth Distance (km) Brightness Sun altitude
Rises 09:58:29 0° 292° (WNW) 4,939 9.8 24.6°
Reaches altitude 10° 10:02:30 10° 279° (W) 3,947 9.4 24.8°
Maximum altitude 10:09:47 23° 232° (SW) 3,012 9.4 25.3°
Drops below altitude 10° 10:17:00 10° 185° (S) 3,884 10.9 25.8°
Sets 10:20:58 0° 172° (S) 4,842 11.4 26.0°
